Location: Melizzano
(41.1500°N, 14.5000°E)
Time: 13:56:20
(UTC+00:00)

MOS 1-B Rocket - Pass Details

Date: 11 May 2021
Orbit: 890 x 1606 km, 99.0° (Epoch: 19 June)

Event Time Altitude Azimuth Distance (km) Brightness Sun altitude
Rises 18:54:52 0° 13° (NNE) 4,320 7.6 -8.3°
Reaches altitude 10° 18:57:45 10° 14° (NNE) 3,244 7.0 -8.7°
Maximum altitude 19:05:07 87° 103° (ESE) 1,115 4.3 -9.9°
Drops below altitude 10° 19:11:21 10° 194° (SSW) 2,761 6.2 -10.8°
Sets 19:13:38 0° 195° (SSW) 3,642 6.8 -11.2°
